Location: Te Maire Creek
(41.1333°S, 175.9167°E)
Time: 00:29:37
(UTC+00:00)

Cosmos 1605 Rocket - Pass Details

Date: 19 May 2024
Orbit: 943 x 1006 km, 82.9° (Epoch: 18 June)

Event Time Altitude Azimuth Distance (km) Brightness Sun altitude
Rises 17:28:24 0° 185° (S) 3,729 6.9 -21.2°
Reaches altitude 10° 17:30:58 10° 181° (S) 2,783 6.3 -20.7°
Maximum altitude 17:37:19 64° 100° (E) 1,113 4.5 -19.5°
Drops below altitude 10° 17:43:40 10° 18° (NNE) 2,779 6.8 -18.4°
Sets 17:46:13 0° 15° (NNE) 3,724 7.4 -17.9°
